| time (UTC) | temp F | wind direction | speed MPH | gust MPH | rain 1hr in | rain 24hr in | rain mn in | humidity % | barometer mb |
| 20260506190936 | 65 | 288 | 4.0 | 6.0 | 0.00 | 0.00 | 0.00 | 73 | 1007.2 |
| 20260506185922 | 66 | 282 | 3.0 | 10.0 | 0.00 | 0.00 | 0.00 | 72 | 1007.1 |
| 20260506184927 | 66 | 277 | 3.0 | 8.0 | 0.00 | 0.00 | 0.00 | 72 | 1007.2 |
| 20260506183926 | 66 | 283 | 2.0 | 7.0 | 0.00 | 0.00 | 0.00 | 71 | 1007.1 |
| 20260506182932 | 67 | 274 | 4.0 | 8.0 | 0.00 | 0.00 | 0.00 | 71 | 1007.2 |
| 20260506181950 | 67 | 282 | 4.0 | 6.0 | 0.00 | 0.00 | 0.00 | 70 | 1007.2 |
| 20260506180934 | 67 | 275 | 5.0 | 8.0 | 0.00 | 0.00 | 0.00 | 71 | 1007.3 |
| 20260506175932 | 68 | 283 | 1.0 | 6.0 | 0.00 | 0.00 | 0.00 | 70 | 1007.6 |
| 20260506174937 | 68 | 278 | 4.0 | 8.0 | 0.00 | 0.00 | 0.00 | 68 | 1007.6 |
| 20260506173956 | 69 | 274 | 3.0 | 11.0 | 0.00 | 0.00 | 0.00 | 66 | 1007.9 |
| 20260506172921 | 69 | 274 | 5.0 | 10.0 | 0.00 | 0.00 | 0.00 | 67 | 1008.0 |
| 20260506171940 | 68 | 293 | 3.0 | 6.0 | 0.00 | 0.00 | 0.00 | 69 | 1007.7 |
| 20260506170925 | 68 | 279 | 3.0 | 7.0 | 0.00 | 0.00 | 0.00 | 69 | 1007.6 |
| 20260506165909 | 67 | 290 | 3.0 | 8.0 | 0.00 | 0.00 | 0.00 | 70 | 1008.0 |
| 20260506164926 | 68 | 305 | 3.0 | 8.0 | 0.00 | 0.00 | 0.00 | 69 | 1008.2 |
| 20260506163912 | 68 | 280 | 4.0 | 9.0 | 0.00 | 0.00 | 0.00 | 69 | 1008.4 |
| 20260506162930 | 67 | 238 | 3.0 | 7.0 | 0.00 | 0.00 | 0.00 | 70 | 1008.4 |
| 20260506161915 | 68 | 280 | 5.0 | 8.0 | 0.00 | 0.00 | 0.00 | 69 | 1008.8 |
| 20260506160933 | 69 | 279 | 4.0 | 8.0 | 0.00 | 0.00 | 0.00 | 68 | 1008.6 |
| 20260506155917 | 68 | 302 | 2.0 | 6.0 | 0.00 | 0.00 | 0.00 | 68 | 1008.8 |
| 20260506154936 | 68 | 255 | 4.0 | 8.0 | 0.00 | 0.00 | 0.00 | 68 | 1008.9 |
| 20260506153920 | 69 | 288 | 3.0 | 7.0 | 0.00 | 0.00 | 0.00 | 68 | 1009.1 |
| 20260506152938 | 68 | 270 | 3.0 | 6.0 | 0.00 | 0.00 | 0.00 | 68 | 1009.3 |
| 20260506151923 | 68 | 291 | 3.0 | 6.0 | 0.00 | 0.00 | 0.00 | 69 | 1009.4 |
| 20260506151000 | 69 | 261 | 6.0 | 11.0 | 0.00 | 0.00 | 0.00 | 68 | 1009.4 |
| 20260506145923 | 69 | 284 | 4.0 | 8.0 | 0.00 | 0.00 | 0.00 | 68 | 1009.4 |
| 20260506144941 | 68 | 277 | 4.0 | 9.0 | 0.00 | 0.00 | 0.00 | 69 | 1009.3 |
| 20260506143926 | 68 | 289 | 4.0 | 6.0 | 0.00 | 0.00 | 0.00 | 69 | 1009.3 |
| 20260506142944 | 68 | 283 | 4.0 | 7.0 | 0.00 | 0.00 | 0.00 | 70 | 1009.2 |
| 20260506141930 | 67 | 302 | 2.0 | 8.0 | 0.00 | 0.00 | 0.00 | 71 | 1009.2 |
| 20260506140947 | 66 | 214 | 2.0 | 7.0 | 0.00 | 0.00 | 0.00 | 72 | 1009.3 |
| 20260506135932 | 66 | 294 | 2.0 | 6.0 | 0.00 | 0.00 | 0.00 | 74 | 1009.2 |
| 20260506134918 | 65 | 270 | 2.0 | 5.0 | 0.00 | 0.00 | 0.00 | 74 | 1009.2 |
| 20260506133937 | 65 | 245 | 2.0 | 7.0 | 0.00 | 0.00 | 0.00 | 74 | 1009.7 |
| 20260506132922 | 65 | 298 | 3.0 | 5.0 | 0.00 | 0.00 | 0.00 | 75 | 1009.7 |
| 20260506131941 | 64 | 296 | 2.0 | 5.0 | 0.00 | 0.00 | 0.00 | 77 | 1009.8 |
| 20260506130927 | 63 | 280 | 2.0 | 5.0 | 0.00 | 0.00 | 0.00 | 79 | 1009.7 |
| 20260506125945 | 62 | 276 | 3.0 | 7.0 | 0.00 | 0.00 | 0.00 | 80 | 1009.8 |
| 20260506124929 | 61 | 293 | 3.0 | 6.0 | 0.00 | 0.00 | 0.00 | 81 | 1009.9 |
| 20260506123947 | 61 | 306 | 3.0 | 5.0 | 0.00 | 0.00 | 0.00 | 81 | 1009.9 |
| 20260506122953 | 61 | 291 | 5.0 | 8.0 | 0.00 | 0.00 | 0.00 | 82 | 1009.8 |
| 20260506121951 | 60 | 306 | 2.0 | 3.0 | 0.00 | 0.00 | 0.00 | 83 | 1009.6 |
| 20260506120935 | 60 | 299 | 3.0 | 6.0 | 0.00 | 0.00 | 0.00 | 84 | 1010.0 |
| 20260506115953 | 59 | 296 | 2.0 | 5.0 | 0.00 | 0.00 | 0.00 | 84 | 1010.2 |
| 20260506115045 | 59 | 276 | 3.0 | 6.0 | 0.00 | 0.00 | 0.00 | 84 | 1010.2 |
| 20260506113954 | 59 | 283 | 4.0 | 8.0 | 0.00 | 0.00 | 0.00 | 84 | 1010.3 |
| 20260506112959 | 59 | 281 | 3.0 | 5.0 | 0.00 | 0.00 | 0.00 | 85 | 1010.5 |
| 20260506111925 | 59 | 286 | 2.0 | 5.0 | 0.00 | 0.00 | 0.00 | 86 | 1010.2 |
| 20260506110943 | 58 | 316 | 1.0 | 5.0 | 0.00 | 0.00 | 0.00 | 87 | 1010.3 |
| 20260506105929 | 58 | 285 | 2.0 | 5.0 | 0.00 | 0.00 | 0.00 | 87 | 1010.3 |
| 20260506105007 | 58 | 294 | 3.0 | 5.0 | 0.00 | 0.00 | 0.00 | 87 | 1010.3 |
| 20260506103933 | 58 | 293 | 2.0 | 5.0 | 0.00 | 0.00 | 0.00 | 87 | 1010.4 |
| 20260506102952 | 58 | 285 | 1.0 | 3.0 | 0.00 | 0.00 | 0.00 | 86 | 1010.2 |
| 20260506101938 | 58 | 260 | 2.0 | 3.0 | 0.00 | 0.00 | 0.00 | 86 | 1010.3 |
| 20260506100957 | 58 | 283 | 3.0 | 6.0 | 0.00 | 0.00 | 0.00 | 86 | 1010.1 |
| 20260506095942 | 58 | 293 | 2.0 | 3.0 | 0.00 | 0.00 | 0.00 | 86 | 1010.0 |
| 20260506094927 | 58 | 309 | 1.0 | 5.0 | 0.00 | 0.00 | 0.00 | 86 | 1010.0 |
| 20260506094006 | 58 | 297 | 2.0 | 3.0 | 0.00 | 0.00 | 0.00 | 85 | 1010.0 |
| 20260506092931 | 58 | 277 | 3.0 | 6.0 | 0.00 | 0.00 | 0.00 | 86 | 1009.9 |
| 20260506091949 | 58 | 296 | 2.0 | 3.0 | 0.00 | 0.00 | 0.00 | 86 | 1009.9 |
| 20260506091035 | 58 | 286 | 1.0 | 3.0 | 0.00 | 0.00 | 0.00 | 85 | 1010.1 |
| 20260506090014 | 59 | 308 | 2.0 | 3.0 | 0.00 | 0.00 | 0.00 | 85 | 1010.3 |
| 20260506085000 | 59 | 317 | 1.0 | 5.0 | 0.00 | 0.00 | 0.00 | 85 | 1010.2 |
| 20260506084018 | 59 | 284 | 1.0 | 3.0 | 0.00 | 0.00 | 0.00 | 84 | 1010.3 |
| 20260506082943 | 59 | 245 | 3.0 | 6.0 | 0.00 | 0.00 | 0.00 | 84 | 1010.3 |
| 20260506082001 | 59 | 307 | 1.0 | 5.0 | 0.00 | 0.00 | 0.00 | 83 | 1010.2 |
| 20260506081026 | 60 | 298 | 1.0 | 3.0 | 0.00 | 0.00 | 0.00 | 83 | 1010.1 |
| 20260506072953 | 60 | 261 | 2.0 | 8.0 | 0.00 | 0.00 | 0.00 | 82 | 1010.0 |
| 20260506071938 | 60 | 265 | 3.0 | 7.0 | 0.00 | 0.00 | 0.00 | 82 | 1010.1 |
| 20260506071017 | 60 | 307 | 1.0 | 5.0 | 0.00 | 0.00 | 0.00 | 81 | 1010.0 |
| 20260506061948 | 60 | 270 | 4.0 | 8.0 | 0.00 | 0.00 | 0.00 | 79 | 1010.0 |
| 20260506061007 | 60 | 286 | 2.0 | 5.0 | 0.00 | 0.00 | 0.00 | 78 | 1009.8 |
| 20260506050945 | 60 | 287 | 3.0 | 6.0 | 0.00 | 0.00 | 0.00 | 77 | 1010.4 |
| 20260506044948 | 60 | 291 | 2.0 | 8.0 | 0.00 | 0.00 | 0.00 | 75 | 1010.4 |
| 20260506044007 | 60 | 293 | 3.0 | 7.0 | 0.00 | 0.00 | 0.00 | 75 | 1010.4 |
| 20260506042952 | 60 | 294 | 3.0 | 5.0 | 0.00 | 0.00 | 0.00 | 74 | 1010.4 |
| 20260506042043 | 60 | 293 | 2.0 | 3.0 | 0.00 | 0.00 | 0.00 | 75 | 1010.4 |
| 20260506040947 | 60 | 285 | 2.0 | 5.0 | 0.00 | 0.00 | 0.00 | 74 | 1010.3 |
| 20260506040006 | 60 | 290 | 2.0 | 5.0 | 0.00 | 0.00 | 0.00 | 73 | 1010.2 |
| 20260506034951 | 60 | 284 | 1.0 | 5.0 | 0.00 | 0.00 | 0.00 | 74 | 1010.4 |
| 20260506034009 | 60 | 257 | 3.0 | 7.0 | 0.00 | 0.00 | 0.00 | 73 | 1010.4 |
| 20260506032954 | 60 | 286 | 2.0 | 5.0 | 0.00 | 0.00 | 0.00 | 73 | 1010.1 |
| 20260506031940 | 60 | 300 | 2.0 | 6.0 | 0.00 | 0.00 | 0.00 | 72 | 1010.1 |
| 20260506030957 | 61 | 298 | 2.0 | 3.0 | 0.00 | 0.00 | 0.00 | 71 | 1010.2 |
| 20260506025939 | 61 | 304 | 2.0 | 5.0 | 0.00 | 0.00 | 0.00 | 71 | 1010.1 |
| 20260506024958 | 61 | 299 | 3.0 | 6.0 | 0.00 | 0.00 | 0.00 | 70 | 1010.1 |
| 20260506023942 | 61 | 278 | 3.0 | 8.0 | 0.00 | 0.00 | 0.00 | 69 | 1010.2 |
| 20260506023001 | 62 | 296 | 2.0 | 7.0 | 0.00 | 0.00 | 0.00 | 69 | 1010.0 |
| 20260506021946 | 61 | 271 | 2.0 | 9.0 | 0.00 | 0.00 | 0.00 | 70 | 1010.0 |
| 20260506021004 | 61 | 271 | 4.0 | 6.0 | 0.00 | 0.00 | 0.00 | 70 | 1010.1 |
| 20260506015948 | 61 | 296 | 1.0 | 5.0 | 0.00 | 0.00 | 0.00 | 70 | 1010.0 |
| 20260506015006 | 61 | 276 | 3.0 | 7.0 | 0.00 | 0.00 | 0.00 | 70 | 1010.0 |
| 20260506014030 | 61 | 288 | 3.0 | 7.0 | 0.00 | 0.00 | 0.00 | 70 | 1010.1 |
| 20260506013009 | 61 | 245 | 4.0 | 7.0 | 0.00 | 0.00 | 0.00 | 70 | 1009.9 |
| 20260506012055 | 61 | 299 | 3.0 | 5.0 | 0.00 | 0.00 | 0.00 | 71 | 1009.8 |
| 20260506011014 | 61 | 293 | 1.0 | 5.0 | 0.00 | 0.00 | 0.00 | 71 | 1009.7 |
| 20260506010000 | 61 | 282 | 3.0 | 6.0 | 0.00 | 0.00 | 0.00 | 70 | 1009.6 |
| 20260506004946 | 61 | 287 | 3.0 | 7.0 | 0.00 | 0.00 | 0.00 | 70 | 1009.6 |
| 20260506004005 | 61 | 306 | 2.0 | 5.0 | 0.00 | 0.00 | 0.00 | 70 | 1009.4 |
| 20260506002950 | 61 | 241 | 2.0 | 3.0 | 0.00 | 0.00 | 0.00 | 71 | 1009.2 |
| 20260506002009 | 61 | 306 | 3.0 | 3.0 | 0.00 | 0.00 | 0.00 | 72 | 1009.1 |
| 20260506000955 | 61 | 311 | 1.0 | 5.0 | 0.00 | 0.00 | 0.00 | 71 | 1009.0 |
| 20260506000013 | 61 | 296 | 3.0 | 5.0 | 0.00 | 0.00 | 0.00 | 71 | 1008.7 |
| 20260505234959 | 62 | 291 | 1.0 | 7.0 | 0.00 | 0.00 | 0.00 | 70 | 1008.5 |
| 20260505234018 | 62 | 291 | 3.0 | 8.0 | 0.00 | 0.00 | 0.00 | 70 | 1008.5 |
| 20260505233004 | 62 | 286 | 2.0 | 6.0 | 0.00 | 0.00 | 0.00 | 69 | 1008.3 |
| 20260505232010 | 63 | 308 | 2.0 | 5.0 | 0.00 | 0.00 | 0.00 | 68 | 1008.2 |
| 20260505231008 | 64 | 279 | 4.0 | 8.0 | 0.00 | 0.00 | 0.00 | 66 | 1008.2 |
| 20260505230014 | 64 | 262 | 5.0 | 8.0 | 0.00 | 0.00 | 0.00 | 64 | 1008.0 |
| 20260505225033 | 65 | 269 | 5.0 | 9.0 | 0.00 | 0.00 | 0.00 | 63 | 1007.3 |
| 20260505223959 | 65 | 272 | 6.0 | 9.0 | 0.00 | 0.00 | 0.00 | 63 | 1007.2 |
| 20260505223018 | 67 | 290 | 2.0 | 5.0 | 0.00 | 0.00 | 0.00 | 61 | 1007.5 |
| 20260505222024 | 68 | 275 | 4.0 | 9.0 | 0.00 | 0.00 | 0.00 | 59 | 1007.6 |
| 20260505220950 | 68 | 275 | 3.0 | 6.0 | 0.00 | 0.00 | 0.00 | 59 | 1007.4 |
| 20260505220009 | 69 | 279 | 3.0 | 6.0 | 0.00 | 0.00 | 0.00 | 58 | 1007.3 |
| 20260505214955 | 70 | 285 | 4.0 | 8.0 | 0.00 | 0.00 | 0.00 | 57 | 1007.2 |
| 20260505214014 | 70 | 282 | 3.0 | 9.0 | 0.00 | 0.00 | 0.00 | 57 | 1007.1 |
| 20260505213000 | 70 | 247 | 4.0 | 7.0 | 0.00 | 0.00 | 0.00 | 56 | 1007.0 |
| 20260505212019 | 71 | 255 | 5.0 | 7.0 | 0.00 | 0.00 | 0.00 | 54 | 1007.0 |
| 20260505211025 | 72 | 266 | 4.0 | 9.0 | 0.00 | 0.00 | 0.00 | 54 | 1007.1 |
| 20260505210024 | 72 | 243 | 3.0 | 10.0 | 0.00 | 0.00 | 0.00 | 54 | 1007.0 |
| 20260505205011 | 71 | 283 | 4.0 | 9.0 | 0.00 | 0.00 | 0.00 | 54 | 1006.8 |
| 20260505204017 | 73 | 272 | 3.0 | 8.0 | 0.00 | 0.00 | 0.00 | 52 | 1007.0 |
| 20260505203015 | 73 | 298 | 3.0 | 6.0 | 0.00 | 0.00 | 0.00 | 53 | 1007.0 |
| 20260505202001 | 73 | 286 | 2.0 | 6.0 | 0.00 | 0.00 | 0.00 | 53 | 1007.0 |
| 20260505201020 | 73 | 291 | 3.0 | 7.0 | 0.00 | 0.00 | 0.00 | 51 | 1007.1 |
| 20260505200006 | 73 | 293 | 2.0 | 7.0 | 0.00 | 0.00 | 0.00 | 52 | 1007.0 |
| 20260505195025 | 73 | 253 | 5.0 | 9.0 | 0.00 | 0.00 | 0.00 | 51 | 1007.0 |
| 20260505194005 | 74 | 277 | 6.0 | 10.0 | 0.00 | 0.00 | 0.00 | 51 | 1007.1 |
| 20260505193024 | 75 | 297 | 4.0 | 6.0 | 0.00 | 0.00 | 0.00 | 50 | 1007.2 |
| 20260505192009 | 75 | 265 | 3.0 | 6.0 | 0.00 | 0.00 | 0.00 | 50 | 1007.3 |